Accueil
METAR-TAF:

METAR-TAF

Aéroports :

Ferrare, Italie

latitude: 44-50N, longitude: 011-37E, altitude: 10 m

Observation

Le bulletin a été fait il y a 2 heures et 15 minutes, à 17:55 UTC
Vent 4 kt de ouest/nord-ouest
Température 18°C
Humidité 88%
Pression 1004 hPa
Visibilité 10 km ou plus
Quelques nuages à une hauteur de 7000 ft

METAR: LIPF 261755Z 30004KT 9999 FEW070 18/16 Q1004 RMK FEW VIS MIN 9999

Heure: 22:10 (20:10 UTC)


TAF: absent

Observations et prévisions météorologiques de plus de 4000 aéroports (messages METAR et TAF).

Les stations disponibles sont représentées par des disques jaunes et rouges sur la carte.

Passer la souris dessus pour voir le nom de la station.

Cliquer dessus pour voir les observations et prévisions météorologiques.

Pour changer de carte: cliquez sur les boutons verts avec une croix noire pour zoomer, sur le bouton vert avec un tiret pour effectuer un zoom arrière, ou sur les flèches vertes pour les cartes adjacentes.


METAR-TAF: